CAPE
0 0 0 0 0 0 0 0 0 0 0 0 0 0 0 0 0 0 0 0 0 0 0 0 0 0 0 0 0 0 0 0 0 0 0 0 0 0 37 77 134 91 91
0 0 0 0 0 0 0 0 0 0 0 0 0 0 0 0 0 0 0 0 0 0 0 0 0 2 0 3 5 2 0 0 0 0 0 0 0 39 39 46 39 65 30
0 0 0 0 0 0 0 0 0 0 0 0 0 0 0 0 0 0 0 1 1 3 6 7 7 9 2 6 12 11 10 3 7 11 3 0 0 0 4 1 23 1 35
0 0 0 0 0 0 0 0 0 0 0 0 0 0 0 0 0 0 1 2 9 12 13 11 14 7 7 14 19 25 6 7 5 1 14 4 5 5 1 9 17 17 20
0 0 0 0 0 0 0 0 0 0 0 0 1 0 0 0 0 1 7 9 6 5 5 3 21 20 14 30 30 25 38 21 22 4 7 18 17 11 31 26 12 16 37
0 0 0 0 0 0 0 0 0 0 0 2 4 6 6 3 4 7 2 8 1 3 11 13 24 26 20 26 33 22 22 11 19 25 28 9 1 2 6 4 15 21 32
0 0 0 0 0 0 0 0 0 0 0 0 1 6 5 2 11 14 7 4 4 6 10 4 7 17 13 15 22 11 13 12 8 6 17 11 7 20 26 19 27 23 37
0 0 0 0 0 0 0 0 0 0 0 0 1 5 4 15 9 3 11 13 12 14 4 6 22 13 6 14 11 8 7 13 14 12 6 4 4 5 8 14 20 11 24
0 0 0 0 0 0 0 0 0 0 0 0 3 7 12 16 9 17 6 2 3 1 7 11 14 12 1 0 0 0 0 1 3 5 2 0 0 4 5 4 8 14 8
0 0 0 0 0 0 0 0 0 0 0 2 8 7 2 9 15 1 7 11 7 6 7 13 12 10 11 3 0 0 0 3 3 5 5 1 1 1 0 1 8 13 18
0 0 0 0 0 0 0 0 0 0 0 6 5 9 3 6 8 12 11 3 0 0 2 6 10 11 19 9 5 0 1 1 2 5 7 8 14 10 10 16 16 18 25
0 0 0 0 0 0 0 0 0 0 3 8 7 12 13 15 4 1 0 0 0 0 0 0 1 4 14 25 12 5 4 5 8 7 6 3 6 18 21 16 24 29 26
0 0 0 0 0 0 0 0 0 0 2 8 7 11 10 14 11 6 8 2 1 0 0 0 0 2 13 19 21 8 13 15 14 11 12 12 14 19 22 28 30 26 21
0 0 0 0 0 0 0 0 0 0 2 8 10 12 11 18 13 15 23 14 10 5 0 0 0 0 1 1 5 4 6 9 6 5 15 22 22 18 11 10 15 22 23
0 0 0 0 0 0 0 0 0 0 1 7 12 12 13 10 4 0 4 14 24 17 0 0 0 0 0 0 0 0 0 1 8 22 23 27 3 0 0 0 0 0 3
0 0 0 0 0 0 0 0 0 0 1 8 12 12 13 10 3 0 2 10 22 20 1 0 0 0 0 0 0 0 1 16 14 8 10 8 19 4 0 0 0 0 5
0 0 0 0 0 0 0 0 0 1 2 9 9 10 4 0 0 0 0 0 11 16 0 0 0 0 0 0 0 0 14 17 18 12 6 0 2 0 0 0 0 9 8
0 0 0 0 0 0 0 0 1 2 4 8 2 3 0 0 0 0 0 0 5 2 0 0 0 0 0 0 0 0 15 17 25 29 29 0 0 0 0 0 0 2 14
0 0 0 0 0 0 0 1 4 3 6 7 1 0 0 0 0 0 0 0 0 0 0 0 0 0 0 0 0 0 12 11 18 28 20 0 0 0 0 0 0 0 2
0 0 0 0 0 0 0 2 4 6 8 5 0 0 0 0 0 0 0 0 0 0 0 0 0 0 0 0 0 0 2 7 6 18 24 0 0 0 0 0 0 0 0
0 0 0 0 1 1 2 2 4 5 8 0 0 0 0 0 0 0 0 0 0 0 0 0 0 0 0 0 0 0 0 0 2 14 13 4 0 0 0 0 2 0 0
0 0 0 0 1 1 2 0 4 4 1 0 0 1 0 0 0 0 0 0 0 0 0 0 1 7 11 5 0 0 0 0 0 11 2 0 0 0 0 0 0 0 0
0 0 0 1 3 1 2 2 3 5 0 0 2 5 0 1 0 0 0 0 0 4 5 5 7 11 11 22 0 0 0 0 0 12 0 0 0 0 2 9 0 0 0
0 0 0 3 3 2 5 2 7 1 2 2 2 1 0 0 0 0 0 1 0 1 4 9 16 10 15 23 27 11 17 21 13 6 0 3 4 7 20 27 21 3 0
0 0 1 3 6 6 6 7 1 3 3 1 0 0 0 0 0 0 0 0 0 0 0 0 2 9 11 10 0 0 0 0 0 0 3 34 24 8 5 13 18 0 3
0 0 2 4 4 4 3 1 4 1 1 0 0 0 0 0 0 0 0 0 0 0 0 0 0 0 1 0 0 0 0 0 0 0 22 16 7 10 8 6 12 2 0
CIN
-0 -0 -0 -0 -0 -0 -0 -0 -0 -0 -0 -0 -0 -0 -0 -0 -0 -0 -0 -0 -0 -0 -0 -0 -0 -0 -0 -0 -0 -0 -0 -0 -0 -0 -0 -0 -0 -0 -1 -3 -4 -1 -0
-0 -0 -0 -0 -0 -0 -0 -0 -0 -0 -0 -0 -0 -0 -0 -0 -0 -0 -0 -0 -0 -0 -0 -1 -0 -1 -0 -1 -1 -2 -0 -0 -0 -0 -0 -0 -0 -3 -5 -12 -11 -1 -4
-0 -0 -0 -0 -0 -0 -0 -0 -0 -0 -0 -0 -0 -0 -0 -0 -0 -0 -0 -0 -0 -0 -1 -0 -1 -1 -1 -2 -1 -1 -1 -1 -1 -1 -1 -0 -0 -0 -1 -1 -2 -7 -2
-0 -0 -0 -0 -0 -0 -0 -0 -0 -0 -0 -0 -0 -0 -0 -0 -0 -0 -1 -1 -0 -0 -0 -1 -0 -1 -1 -0 -0 -0 -0 -0 -0 -3 -1 -1 -1 -1 -1 -2 -2 -2 -2
-0 -0 -0 -0 -0 -0 -0 -0 -0 -0 -0 -1 -1 -0 -0 -0 -0 -1 -1 -1 -1 -1 -0 -2 -0 -0 -1 -0 -0 -0 -1 -0 -1 -2 -6 -1 -1 -7 -0 -1 -1 -4 -6
-0 -0 -0 -0 -0 -0 -0 -0 -0 -0 -0 -1 -1 -1 -1 -1 -2 -1 -3 -2 -4 -3 -0 -0 -0 -1 -1 -1 -0 -1 -0 -1 -0 -0 -0 -0 -2 -2 -4 -19 -9 -2 -1
-0 -0 -0 -0 -0 -0 -0 -0 -0 -0 -0 -0 -1 -0 -0 -2 -1 -1 -0 -1 -1 -1 -0 -2 -1 -0 -1 -1 -1 -0 -0 -1 -1 -1 -1 -1 -2 -2 -1 -0 -0 -0 -1
-0 -0 -0 -0 -0 -0 -0 -0 -0 -0 -0 -0 -1 -0 -0 -0 -0 -1 -0 -0 -0 -0 -2 -2 -1 -1 -1 -1 -1 -1 -1 -1 -1 -1 -1 -1 -1 -1 -3 -1 -0 -2 -1
-0 -0 -0 -0 -0 -0 -0 -0 -0 -0 -0 -2 -1 -0 -1 -1 -0 -0 -0 -5 -5 -4 -1 -2 -1 -1 -0 -0 -0 -0 -0 -1 -0 -1 -0 -0 -0 -1 -1 -2 -3 -1 -2
-0 -0 -0 -0 -0 -0 -0 -0 -0 -0 -0 -1 -0 -1 -3 -1 -0 -3 -1 -0 -1 -1 -1 -1 -1 -1 -2 -1 -0 -0 -0 -1 -1 -1 -2 -1 -1 -0 -0 -1 -2 -3 -2
-0 -0 -0 -0 -0 -0 -0 -0 -0 -0 -1 -1 -1 -0 -2 -1 -1 -1 -1 -1 -0 -0 -1 -1 -1 -1 -0 -1 -0 -1 -1 -1 -1 -1 -2 -2 -1 -2 -3 -1 -1 -2 -2
-0 -0 -0 -0 -0 -0 -0 -0 -0 -0 -1 -0 -0 -0 -1 -0 -1 -0 -0 -0 -0 -0 -0 -0 -1 -1 -1 -1 -1 -1 -1 -1 -3 -1 -2 -1 -1 -1 -3 -4 -4 -5 -3
-0 -0 -0 -0 -0 -0 -0 -0 -0 -0 -1 -0 -1 -0 -1 -1 -1 -1 -1 -1 -0 -0 -0 -0 -0 -1 -1 -0 -0 -0 -0 -1 -2 -1 -2 -1 -2 -2 -3 -2 -2 -1 -2
-0 -0 -0 -0 -0 -0 -0 -0 -0 -0 -1 -0 -1 -1 -0 -1 -0 -1 -1 -1 -1 -1 -0 -0 -0 -0 -0 -0 -0 -1 -1 -1 -0 -1 -1 -1 -2 -6 -11 -4 -3 -1 -3
-0 -0 -0 -0 -0 -0 -0 -0 -0 -0 -1 -1 -1 -1 -0 -1 -0 -1 -1 -1 -1 -1 -0 -0 -0 -0 -0 -0 -0 -0 -0 -1 -1 -1 -1 -3 -3 -0 -0 -0 -1 -0 -2
-0 -0 -0 -0 -0 -0 -0 -0 -0 -1 -1 -1 -1 -1 -1 -0 -1 -0 -1 -0 -0 -0 -0 -0 -0 -0 -0 -0 -0 -0 -0 -1 -3 -3 -2 -2 -2 -2 -0 -0 -0 -0 -1
-0 -0 -0 -0 -0 -0 -0 -0 -1 -1 -1 -1 -0 -0 -1 -0 -0 -0 -0 -0 -0 -0 -0 -0 -0 -0 -0 -0 -0 -0 -1 -1 -2 -1 -2 -0 -2 -0 -0 -0 -0 -1 -3
-0 -0 -0 -0 -0 -0 -0 -1 -1 -1 -1 -1 -1 -1 -0 -0 -0 -0 -0 -0 -0 -1 -0 -0 -0 -0 -0 -0 -0 -0 -1 -1 -2 -2 -1 -1 -0 -0 -0 -0 -0 -1 -3
-0 -0 -0 -0 -0 -0 -0 -1 -1 -1 -1 -1 -1 -0 -0 -0 -0 -0 -0 -0 -0 -0 -0 -0 -0 -0 -0 -0 -0 -0 -2 -1 -3 -2 -2 -0 -0 -0 -0 -0 -0 -0 -2
-0 -0 -0 -0 -0 -0 -1 -0 -0 -1 -1 -1 -0 -0 -0 -0 -0 -0 -0 -0 -0 -0 -0 -0 -0 -0 -0 -0 -0 -0 -1 -5 -4 -2 -1 -1 -0 -0 -0 -0 -0 -0 -0
-0 -0 -0 -0 -1 -1 -0 -0 -0 -1 -1 -0 -0 -0 -0 -0 -0 -0 -0 -0 -0 -0 -0 -0 -0 -0 -0 -0 -0 -0 -0 -0 -4 -5 -4 -2 -0 -0 -0 -0 -2 -0 -0
-0 -0 -0 -0 -1 -1 -1 -0 -1 -3 -1 -0 -0 -1 -0 -0 -0 -0 -0 -0 -0 -0 -0 -0 -2 -1 -1 -3 -0 -0 -0 -0 -0 -3 -2 -0 -0 -0 -0 -0 -0 -0 -0
-0 -0 -0 -1 -1 -1 -1 -2 -3 -1 -0 -0 -1 -1 -0 -1 -0 -0 -0 -0 -0 -2 -2 -2 -3 -4 -2 -2 -0 -0 -0 -0 -0 -1 -0 -0 -0 -0 -23 -8 -4 -0 -2
-0 -0 -1 -1 -0 -1 -1 -2 -1 -1 -1 -1 -1 -0 -0 -0 -0 -0 -0 -1 -0 -3 -2 -2 -2 -5 -3 -3 -2 -3 -2 -6 -14 -5 -0 -6 -13 -11 -3 -1 -4 -6 -1
-0 -0 -1 -1 -1 -1 -1 -2 -1 -0 -2 -1 -0 -0 -0 -0 -0 -0 -0 -0 -0 -0 -0 -0 -4 -3 -3 -5 -0 -0 -0 -0 -0 -0 -2 -4 -4 -5 -5 -3 -1 -4 -2
-0 -1 -1 -0 -0 -2 -2 -1 -1 -1 -2 -0 -0 -0 -0 -0 -0 -0 -0 -0 -0 -0 -0 -0 -0 -0 -4 -0 -0 -0 -0 -0 -0 -0 -3 -3 -2 -2 -1 -3 -5 -3 -0
Wind_Speed
10 12 14 16 18 20 22 23 25 27 28 29 30 30 31 29 30 30 31 31 31 31 31 31 31 32 32 33 34 35 36 35 35 38 37 35 30 25 25 25 24 22 20
9 11 12 14 17 18 20 22 25 28 30 30 32 32 31 30 30 30 30 30 31 31 31 32 31 32 31 31 33 34 35 32 32 35 34 29 27 17 23 22 23 25 24
7 9 11 13 15 17 19 22 25 28 31 33 33 35 32 30 32 33 31 31 31 31 31 31 30 30 29 30 30 30 30 30 29 28 27 26 24 30 22 25 23 26 24
8 8 10 11 13 15 18 22 25 29 32 34 36 36 35 34 32 31 31 30 29 30 30 29 28 28 27 27 27 26 26 27 28 26 27 23 23 23 25 25 25 25 23
6 7 8 9 12 14 18 21 25 30 33 35 36 35 34 33 32 32 31 29 28 28 28 27 27 26 25 25 25 25 25 25 26 26 27 27 26 26 27 28 30 28 27
4 4 6 9 11 14 18 22 28 31 33 35 35 34 34 33 32 33 31 30 28 27 26 25 24 24 24 24 24 24 25 26 27 27 26 26 25 28 27 27 30 30 27
1 2 4 8 11 14 19 24 29 32 34 34 34 33 32 30 30 30 29 28 27 26 25 23 23 23 23 23 24 25 25 27 27 28 28 26 27 27 27 29 31 32 30
1 2 4 7 10 14 19 25 28 32 33 33 32 30 29 28 28 27 26 26 25 24 23 22 22 22 23 24 25 25 26 27 27 28 29 28 28 29 29 29 31 32 30
3 2 3 6 10 15 20 23 28 31 31 30 28 27 26 26 25 25 24 24 24 24 23 22 21 22 24 26 26 27 28 28 28 28 30 30 29 29 28 28 29 30 33
3 3 4 6 11 15 18 23 27 28 28 27 26 25 25 23 23 23 23 23 23 23 22 21 22 24 25 27 27 27 28 28 29 29 30 31 31 30 29 29 28 29 30
4 3 4 7 10 14 17 22 25 25 25 25 24 24 23 22 22 21 20 20 21 21 21 22 24 25 26 27 27 27 28 29 30 30 31 31 31 31 31 29 29 28 30
4 4 5 7 10 13 17 21 23 22 22 22 22 22 21 22 21 18 18 18 19 21 23 24 25 26 25 25 27 27 28 29 31 31 31 32 32 32 31 31 31 28 28
5 5 5 7 9 12 16 19 20 19 19 18 19 19 20 21 19 17 16 17 19 21 24 25 26 26 26 25 26 28 29 30 30 31 31 32 31 31 32 32 32 31 29
4 4 5 7 9 12 15 17 17 16 17 16 18 18 19 17 8 11 12 14 17 21 23 26 26 27 27 29 29 29 29 29 30 30 30 30 31 32 32 32 32 32 33
3 4 5 7 9 11 13 15 15 14 14 15 16 17 16 15 12 8 10 9 8 19 25 27 26 27 27 29 29 29 29 29 30 30 30 30 29 32 32 32 33 31 32
3 4 5 6 8 10 12 14 13 13 13 14 15 15 15 14 13 10 8 11 13 19 24 26 26 26 27 30 31 30 28 29 30 30 30 30 30 32 34 33 31 26 27
3 4 4 6 8 9 11 12 12 12 12 13 14 14 13 12 11 11 11 16 19 20 22 23 24 24 26 31 32 30 28 29 30 30 30 31 32 33 35 35 30 29 25
4 4 5 6 8 10 11 11 11 11 11 12 14 13 12 12 13 14 18 20 20 20 20 21 22 23 26 30 30 30 27 31 29 28 30 31 33 34 34 31 28 26 25
5 6 6 7 9 9 10 9 9 9 10 12 14 16 17 17 18 20 20 21 21 20 19 20 21 23 24 28 30 30 26 31 28 27 29 28 33 34 33 29 26 23 20
7 7 8 8 9 9 9 8 8 8 9 11 13 15 16 17 18 20 21 21 21 21 19 20 20 21 23 25 28 28 27 30 28 27 28 28 34 33 33 30 26 27 17
8 8 8 9 8 9 8 7 7 7 9 10 12 13 14 15 17 17 18 19 20 19 20 20 20 20 22 23 24 26 25 27 27 26 28 30 34 30 22 20 21 14 10
8 8 9 9 9 8 7 6 7 7 8 9 11 12 13 14 15 16 16 16 16 16 18 20 20 22 21 19 21 23 23 23 24 24 27 27 26 19 13 14 14 13 11
9 9 9 9 9 7 6 7 7 7 8 9 10 12 13 14 14 16 17 15 15 15 18 20 21 22 23 22 17 19 20 21 21 21 25 20 16 14 16 14 18 19 32
9 9 9 8 8 8 7 7 8 8 8 9 11 12 12 15 15 17 17 17 17 18 18 20 20 21 22 22 24 25 23 21 22 26 23 19 18 16 20 26 35 36 36
9 9 8 8 8 9 8 7 8 8 8 10 11 12 12 14 16 15 19 18 17 16 19 21 22 21 21 23 25 23 24 23 23 23 20 23 28 26 28 19 35 37 42
9 9 8 9 9 9 7 8 8 8 9 10 11 13 15 15 17 19 20 14 14 13 13 13 15 17 17 19 19 19 21 20 20 21 22 23 28 30 28 26 29 37 39
Wind_Direction
7 9 12 11 12 15 15 13 7 2 359 355 351 349 345 345 343 340 339 339 336 335 333 331 329 329 329 328 326 325 324 322 321 316 315 313 313 313 318 323 323 323 325
360 5 9 9 7 11 14 13 7 1 358 354 351 348 344 342 341 339 339 339 336 334 332 330 329 330 329 331 331 330 327 327 329 324 322 325 326 332 334 332 329 326 325
352 359 3 5 8 10 10 9 4 360 356 352 350 347 345 342 338 336 337 337 335 332 332 332 332 332 334 334 336 338 338 334 336 340 340 334 332 325 334 328 330 330 326
341 353 357 4 8 10 9 4 0 357 354 352 348 346 344 342 341 339 339 338 339 335 335 336 338 340 339 341 341 345 346 346 345 344 343 348 344 342 336 337 335 335 332
329 344 1 8 9 8 4 2 359 355 352 350 349 346 345 344 342 339 338 340 341 340 341 342 343 346 347 349 351 348 348 348 349 352 347 344 343 341 334 331 329 332 334
325 358 8 10 8 4 1 358 353 351 351 351 350 349 347 346 345 343 342 341 343 343 348 350 352 352 349 349 346 346 351 348 344 347 350 353 351 342 342 338 332 331 333
334 7 10 3 1 358 356 354 351 351 351 351 352 352 351 352 350 350 349 348 348 348 350 353 352 348 347 346 346 350 351 349 349 349 347 351 349 347 345 339 335 330 330
124 12 3 3 3 359 356 353 353 353 353 354 354 356 357 358 360 2 3 2 3 3 1 356 354 350 352 357 356 358 357 359 358 357 356 353 352 350 347 341 337 336 336
139 78 36 11 3 358 355 356 355 355 357 359 2 4 5 5 6 6 4 5 7 7 6 4 359 2 2 359 355 1 359 1 0 359 356 354 353 352 351 351 348 342 336
120 87 42 15 3 360 2 360 359 360 3 8 9 10 9 10 7 4 1 3 4 4 3 360 4 7 3 3 5 9 10 10 8 5 3 1 359 357 356 352 350 346 340
115 86 42 16 8 7 5 3 2 6 11 14 16 17 21 23 13 356 350 350 352 348 347 355 2 4 8 12 15 16 13 10 8 7 4 3 2 359 358 356 353 348 345
94 77 39 28 17 12 8 6 9 14 20 23 30 38 41 34 4 343 339 339 343 344 350 356 3 9 16 17 15 13 11 8 5 3 3 1 0 359 359 355 353 350 347
92 69 50 34 23 16 11 12 16 24 32 45 55 55 56 52 358 327 320 328 335 345 351 1 7 12 15 20 17 12 9 6 5 4 2 1 1 359 356 353 349 346 345
86 69 52 35 27 21 17 19 26 38 48 63 59 57 59 74 159 260 266 289 319 336 344 5 17 17 16 13 12 11 12 9 7 6 6 5 3 0 357 353 349 346 341
85 78 60 36 29 25 22 23 31 47 67 72 73 76 83 98 115 200 224 205 201 335 7 10 18 20 25 19 19 15 12 11 9 9 8 6 5 1 359 354 349 347 343
84 79 58 36 31 27 26 23 32 49 67 75 74 78 85 93 103 134 189 130 99 53 23 17 27 30 29 21 16 16 17 14 13 11 10 8 7 2 357 354 351 350 347
76 80 55 38 33 28 25 19 30 40 62 72 71 82 98 114 117 117 113 74 53 44 37 35 37 35 29 19 18 20 19 18 16 15 14 11 7 5 1 358 359 357 357
65 62 53 39 33 28 23 12 22 34 53 56 52 74 99 104 99 84 59 46 45 43 45 44 40 35 30 22 21 19 23 20 18 19 17 14 11 9 7 7 6 6 5
50 59 50 43 33 27 20 12 24 34 41 31 18 13 34 53 52 42 45 42 43 47 49 46 41 35 31 26 23 22 22 20 20 21 19 19 14 12 11 12 12 11 11
52 54 49 41 33 24 23 23 30 39 34 17 13 17 27 34 34 36 36 38 43 44 48 44 40 35 30 26 23 24 23 20 20 22 22 23 16 14 14 15 17 11 8
46 47 41 32 30 28 33 45 48 45 26 20 17 23 21 23 27 35 36 38 41 44 41 38 34 31 28 26 25 25 24 21 20 21 20 18 15 16 20 22 21 2 337
40 40 31 30 35 33 40 51 68 46 31 24 16 22 19 11 20 30 30 36 40 39 34 30 28 26 25 26 25 24 23 21 18 17 16 14 14 17 5 17 10 2 3
36 33 33 38 36 47 49 64 72 54 34 21 12 17 12 9 17 20 21 31 34 31 27 23 21 21 22 22 26 22 21 20 17 16 11 11 10 9 17 8 18 18 10
34 34 44 46 55 71 59 61 66 55 37 11 6 17 18 0 10 11 19 22 23 22 21 18 16 16 17 19 21 17 14 15 13 13 8 12 15 13 17 8 10 8 7
36 42 49 62 72 79 76 58 67 56 35 10 5 15 17 9 9 21 13 17 19 23 20 18 16 14 13 14 13 12 13 11 9 6 11 14 12 14 12 347 9 6 359
45 47 61 77 81 87 72 69 68 57 27 16 12 4 350 3 10 9 15 32 30 26 22 16 14 9 3 1 4 7 7 7 7 11 13 12 12 12 14 15 14 8 7